User: anonymous   Login
Location: Seattle
(47.6064°N, 122.3308°W)
Time: 01:28:05
(UTC-07:00)
Language:

ITUPSAT 1 - Orbit

View from above orbital plane
View from above orbital plane
View from above satellite
View from above satellite

Ground track
Ground track

The orbit data is extracted from the following two-line orbital elements,

1 35935U 09051E   24114.20054605  .00002886  00000-0  64431-3 0  9999
2 35935  98.4817 357.1967 0008629 139.6280 220.5560 14.57567125774287
Epoch (UTC): 23 April 2024 04:48:47
Eccentricity: 0.0008629
inclination: 98.4817°
perigee height: 695 km
apogee height: 707 km
right ascension of ascending node: 357.1967°
argument of perigee: 139.6280°
revolutions per day: 14.57567125
mean anomaly at epoch: 220.5560°
orbit number at epoch: 77428

The dashed part of the orbit path shows where the satellite is in the earth's shadow,  

DLR